Temp
73 76 81 81 81 82 81 81 82 83 83 83 83 83 83 83 83 83 83 83 83 83 83 83 83 83 83 83 83 83 83 83 83 82 81 82 82 82 82 82 81 80 81
76 77 80 82 83 82 82 82 82 83 83 83 83 83 83 83 83 83 83 83 83 83 83 83 83 83 83 83 83 83 83 83 83 83 83 83 82 81 82 82 81 80 81
77 78 80 81 82 82 82 83 83 83 83 83 83 83 83 83 83 83 83 83 83 84 84 83 83 83 83 83 83 83 83 83 83 84 83 76 78 83 82 82 81 81 81
77 76 79 81 82 83 83 83 83 83 83 83 83 83 83 83 84 84 84 84 84 84 84 84 84 83 83 83 83 83 83 83 83 83 77 77 80 82 82 82 81 81 81
76 77 79 82 82 83 83 83 83 83 83 83 83 83 84 84 84 84 84 84 84 84 84 84 83 83 83 83 82 82 82 82 82 81 76 75 74 81 82 81 81 81 81
76 79 82 83 83 83 83 83 83 83 83 83 83 84 84 84 84 84 84 84 84 84 83 83 83 83 83 83 82 82 83 82 82 77 75 77 76 82 82 82 82 82 81
76 79 81 83 83 83 83 83 83 84 84 83 83 84 84 84 84 84 84 84 84 84 84 84 84 83 83 83 82 82 82 83 77 76 75 75 75 81 82 82 82 81 81
77 78 80 83 83 83 84 83 83 84 83 83 83 84 83 84 84 84 84 84 84 84 84 84 84 83 83 83 82 82 82 83 80 76 75 74 77 81 82 82 82 81 81
78 77 77 78 82 83 83 84 84 84 84 83 83 82 83 83 84 84 84 84 84 85 85 84 84 83 83 83 81 82 82 83 76 74 77 74 79 82 83 82 81 81 81
76 76 76 76 78 78 80 84 84 84 84 84 83 84 83 84 84 84 82 82 84 84 85 84 84 82 82 82 82 82 82 82 75 75 75 74 79 82 83 82 81 82 81
76 75 76 76 76 76 77 81 83 84 84 84 83 84 82 76 77 79 80 82 83 83 83 83 83 82 83 82 82 83 83 74 75 74 74 77 79 82 83 82 81 81 81
73 74 75 76 76 76 81 77 76 78 77 76 76 77 75 75 74 78 79 82 83 84 84 83 83 83 81 76 75 78 75 76 74 72 74 78 80 82 83 82 81 81 81
75 76 75 75 76 75 76 75 75 75 74 75 75 75 75 74 74 73 72 74 73 79 76 78 77 76 76 74 73 74 74 75 75 74 76 79 81 81 84 83 81 81 81
74 76 76 76 75 75 75 75 74 74 74 74 74 74 73 72 71 71 72 73 73 73 74 74 73 73 74 74 74 74 74 74 74 74 74 79 80 82 82 83 82 81 81
75 76 76 76 76 76 74 74 74 74 74 74 74 75 74 72 71 72 73 73 73 72 72 72 71 71 71 73 74 73 74 73 74 74 73 79 80 81 82 82 83 82 81
77 77 77 77 76 75 73 74 74 74 74 74 74 74 75 73 72 72 72 71 71 72 72 72 71 71 70 71 72 73 73 73 73 74 74 73 80 81 81 82 82 83 83
78 79 77 78 76 74 74 74 72 73 73 74 74 74 74 74 73 72 70 70 71 71 71 71 70 70 69 70 70 71 72 72 73 73 73 73 74 80 81 82 81 81 82
78 76 78 81 78 74 74 74 74 74 74 73 74 74 74 74 74 72 69 70 71 70 70 70 69 68 68 68 67 68 68 70 71 72 73 74 73 76 79 82 81 81 81
78 78 76 77 75 74 74 74 74 74 74 74 73 72 73 74 74 72 70 70 70 69 69 69 68 67 67 67 68 68 68 68 69 74 72 73 73 74 74 78 80 80 83
78 78 77 76 75 74 73 73 73 73 73 73 72 72 73 73 74 72 71 71 70 69 68 68 67 67 67 67 69 69 67 67 67 68 69 73 72 74 74 74 72 76 81
77 76 74 73 73 73 72 71 71 71 72 72 72 74 74 73 74 72 71 70 70 69 68 68 67 66 66 66 64 64 64 65 67 67 68 68 70 72 72 72 71 71 74
76 75 74 75 72 73 72 71 71 71 71 72 72 73 73 74 73 72 71 70 69 68 67 67 66 64 65 66 63 61 59 62 64 66 67 69 67 69 71 72 71 71 72
75 74 74 73 72 73 73 72 71 71 70 69 70 70 71 73 73 71 70 68 67 66 65 66 66 65 63 64 65 62 58 56 59 63 65 66 65 65 66 68 70 71 71
76 77 75 73 72 73 73 72 71 69 67 66 67 68 70 71 70 70 69 68 67 66 66 66 67 65 64 62 63 65 63 62 57 57 61 62 64 65 64 65 67 68 69
79 77 75 73 72 73 72 72 70 66 65 66 66 67 66 66 68 70 69 68 67 65 65 66 65 65 64 63 62 61 61 60 60 57 55 58 61 62 63 64 64 65 67
79 78 76 73 73 72 72 71 69 67 65 64 64 64 63 63 65 67 69 67 66 65 65 65 65 65 64 63 62 61 60 58 58 57 55 56 56 59 61 62 62 63 64
MSLP
1014.51 1014.18 1014.05 1014.21 1014.31 1014.27 1014.70 1014.69 1015.04 1015.02 1015.27 1015.56 1015.56 1015.72 1016.00 1016.05 1016.06 1016.21 1016.43 1016.62 1016.45 1016.57 1016.54 1016.51 1016.77 1016.73 1016.78 1016.87 1016.85 1016.80 1016.86 1016.91 1016.93 1016.95 1017.23 1017.22 1017.30 1017.32 1017.18 1017.16 1017.34 1017.43 1017.46
1014.02 1014.09 1014.08 1014.37 1014.48 1014.76 1014.71 1015.03 1015.24 1015.33 1015.51 1015.79 1015.98 1016.01 1016.13 1016.30 1016.39 1016.49 1016.64 1016.82 1016.67 1016.78 1016.77 1016.84 1017.00 1017.01 1016.97 1016.87 1016.89 1016.92 1016.95 1017.03 1016.94 1017.03 1017.14 1017.15 1017.35 1017.36 1017.37 1017.46 1017.56 1017.55 1017.66
1014.29 1014.21 1014.23 1014.63 1014.69 1014.93 1015.12 1015.17 1015.44 1015.59 1015.85 1016.13 1016.32 1016.34 1016.36 1016.42 1016.59 1016.50 1016.87 1016.87 1016.78 1016.88 1016.93 1017.00 1017.09 1017.19 1017.08 1017.03 1017.02 1017.00 1017.03 1017.04 1017.00 1017.11 1017.21 1017.41 1017.44 1017.36 1017.49 1017.63 1017.71 1017.74 1017.79
1014.45 1014.48 1014.56 1014.73 1014.88 1014.96 1015.36 1015.47 1015.65 1015.74 1016.05 1016.40 1016.44 1016.64 1016.48 1016.47 1016.82 1016.93 1017.01 1016.99 1017.05 1017.07 1017.05 1017.17 1017.24 1017.17 1017.22 1017.22 1017.23 1017.05 1017.06 1017.04 1017.00 1017.16 1017.36 1017.47 1017.46 1017.56 1017.64 1017.82 1017.93 1018.02 1018.06
1014.65 1014.72 1014.67 1014.92 1015.10 1015.20 1015.42 1015.55 1015.64 1015.99 1016.23 1016.44 1016.43 1016.62 1016.68 1016.75 1017.04 1017.13 1017.08 1017.17 1017.26 1017.34 1017.35 1017.33 1017.24 1017.28 1017.30 1017.34 1017.32 1017.23 1017.06 1017.09 1017.19 1017.37 1017.35 1017.56 1017.63 1017.68 1017.79 1017.92 1018.08 1018.22 1018.34
1014.87 1014.85 1014.97 1015.08 1015.25 1015.16 1015.35 1015.66 1015.83 1016.16 1016.35 1016.41 1016.61 1016.82 1016.97 1017.00 1017.26 1017.33 1017.31 1017.39 1017.58 1017.61 1017.56 1017.49 1017.43 1017.38 1017.38 1017.46 1017.45 1017.35 1017.14 1017.17 1017.20 1017.31 1017.45 1017.59 1017.66 1017.78 1017.92 1018.13 1018.21 1018.39 1018.49
1014.95 1014.93 1015.10 1015.21 1015.32 1015.37 1015.66 1016.00 1016.32 1016.48 1016.62 1016.74 1016.96 1017.10 1017.15 1017.23 1017.47 1017.52 1017.56 1017.66 1017.70 1017.68 1017.63 1017.58 1017.52 1017.47 1017.40 1017.51 1017.56 1017.47 1017.32 1017.32 1017.50 1017.37 1017.50 1017.68 1017.79 1017.78 1017.96 1018.13 1018.29 1018.44 1018.64
1015.09 1015.21 1015.34 1015.43 1015.57 1015.74 1016.03 1016.41 1016.59 1016.70 1016.84 1016.99 1017.08 1017.21 1017.41 1017.48 1017.68 1017.77 1017.75 1017.76 1017.67 1017.65 1017.69 1017.71 1017.65 1017.54 1017.41 1017.48 1017.52 1017.52 1017.49 1017.40 1017.49 1017.42 1017.52 1017.63 1017.73 1017.81 1017.91 1018.18 1018.42 1018.59 1018.76
1015.23 1015.46 1015.61 1015.72 1015.83 1015.98 1016.25 1016.45 1016.62 1016.80 1016.96 1016.98 1017.17 1017.21 1017.51 1017.71 1017.76 1017.77 1017.80 1017.84 1017.74 1017.67 1017.73 1017.69 1017.65 1017.53 1017.42 1017.39 1017.52 1017.35 1017.40 1017.42 1017.63 1017.64 1017.54 1017.61 1017.63 1017.79 1017.96 1018.19 1018.35 1018.61 1018.75
1015.50 1015.60 1015.85 1015.98 1015.98 1016.18 1016.33 1016.42 1016.56 1016.75 1017.04 1017.13 1017.36 1017.55 1017.73 1017.77 1017.82 1017.88 1017.82 1017.83 1017.71 1017.61 1017.60 1017.59 1017.59 1017.40 1017.49 1017.42 1017.36 1017.39 1017.40 1017.40 1017.52 1017.54 1017.57 1017.62 1017.63 1017.71 1017.87 1018.18 1018.37 1018.53 1018.76
1015.85 1015.91 1015.91 1016.02 1016.18 1016.37 1016.63 1016.78 1016.91 1017.06 1017.16 1017.26 1017.49 1017.63 1017.72 1017.94 1017.90 1017.88 1017.92 1017.85 1017.78 1017.62 1017.52 1017.54 1017.47 1017.33 1017.36 1017.37 1017.36 1017.29 1017.35 1017.61 1017.54 1017.51 1017.51 1017.42 1017.48 1017.59 1017.69 1018.03 1018.31 1018.43 1018.69
1015.83 1015.96 1015.94 1016.00 1016.21 1016.49 1016.63 1016.80 1017.09 1017.18 1017.35 1017.54 1017.68 1017.73 1017.83 1017.83 1017.90 1017.87 1017.84 1017.75 1017.67 1017.60 1017.47 1017.45 1017.39 1017.37 1017.50 1017.47 1017.49 1017.45 1017.44 1017.48 1017.49 1017.52 1017.38 1017.30 1017.32 1017.57 1017.58 1017.95 1018.19 1018.35 1018.52
1015.39 1015.83 1015.93 1016.02 1016.17 1016.45 1016.60 1016.79 1017.02 1017.16 1017.39 1017.53 1017.69 1017.84 1017.82 1017.81 1017.72 1017.77 1017.88 1017.84 1017.81 1017.65 1017.66 1017.50 1017.59 1017.55 1017.59 1017.63 1017.63 1017.50 1017.50 1017.49 1017.35 1017.27 1017.10 1017.15 1017.17 1017.34 1017.37 1017.68 1018.05 1018.27 1018.34
1015.39 1015.59 1015.81 1015.86 1016.11 1016.26 1016.40 1016.65 1016.81 1017.01 1017.25 1017.46 1017.57 1017.68 1017.81 1017.93 1018.00 1017.98 1017.88 1017.86 1017.83 1017.78 1017.78 1017.84 1017.91 1017.82 1017.69 1017.59 1017.50 1017.45 1017.36 1017.37 1017.12 1016.98 1016.93 1016.90 1017.03 1017.18 1017.30 1017.47 1017.72 1018.03 1018.14
1015.12 1015.38 1015.58 1015.80 1015.99 1016.02 1016.40 1016.52 1016.67 1016.83 1017.07 1017.13 1017.27 1017.37 1017.55 1017.70 1017.69 1017.76 1017.71 1017.81 1017.74 1017.85 1017.86 1017.92 1018.08 1018.03 1017.89 1017.75 1017.49 1017.33 1017.21 1017.21 1017.02 1016.86 1016.84 1016.63 1016.76 1016.95 1017.03 1017.09 1017.43 1017.74 1017.96
1014.70 1015.00 1015.27 1015.52 1015.49 1015.88 1016.13 1016.27 1016.40 1016.54 1016.67 1016.83 1017.04 1017.01 1017.11 1017.30 1017.50 1017.60 1017.64 1017.71 1017.87 1017.78 1017.86 1017.99 1017.98 1017.95 1017.88 1017.71 1017.50 1017.18 1017.04 1016.97 1016.81 1016.70 1016.55 1016.54 1016.34 1016.41 1016.70 1016.96 1017.14 1017.30 1017.50
1014.12 1014.50 1014.93 1015.14 1015.16 1015.62 1015.93 1015.99 1016.32 1016.27 1016.45 1016.47 1016.54 1016.67 1016.69 1017.01 1017.19 1017.28 1017.50 1017.74 1017.78 1017.69 1017.80 1017.82 1017.82 1017.82 1017.83 1017.58 1017.52 1017.21 1016.99 1016.77 1016.69 1016.52 1016.40 1016.38 1016.26 1016.19 1016.23 1016.47 1016.60 1016.88 1017.26
1013.74 1014.21 1014.47 1014.86 1015.20 1015.43 1015.63 1015.74 1015.95 1016.04 1016.05 1016.07 1016.21 1016.38 1016.60 1016.87 1016.92 1017.00 1017.44 1017.49 1017.48 1017.60 1017.72 1017.77 1017.90 1017.87 1017.79 1017.74 1017.56 1017.22 1017.01 1016.68 1016.48 1016.37 1016.18 1016.15 1016.19 1016.12 1016.04 1016.00 1016.16 1016.40 1016.66
1013.19 1013.66 1014.11 1014.55 1014.93 1015.26 1015.40 1015.49 1015.68 1015.83 1015.85 1015.96 1016.19 1016.28 1016.54 1016.58 1016.64 1016.76 1017.17 1017.26 1017.41 1017.53 1017.67 1017.81 1017.89 1017.89 1017.77 1017.64 1017.39 1017.10 1016.93 1016.72 1016.53 1016.17 1016.17 1016.06 1016.01 1016.01 1015.95 1015.77 1015.68 1016.02 1016.23
1012.91 1013.31 1013.79 1014.32 1014.67 1015.08 1015.41 1015.54 1015.66 1015.78 1015.86 1015.95 1016.02 1016.26 1016.32 1016.33 1016.29 1016.59 1016.94 1017.09 1017.20 1017.50 1017.71 1017.86 1017.99 1017.90 1017.87 1017.75 1017.62 1017.29 1016.76 1016.58 1016.52 1016.36 1016.14 1015.92 1015.91 1015.80 1015.63 1015.55 1015.48 1015.61 1015.59
1012.90 1013.29 1013.73 1014.24 1014.49 1014.84 1015.31 1015.70 1015.90 1015.91 1015.88 1015.93 1015.84 1015.87 1016.01 1016.08 1016.27 1016.50 1016.76 1016.90 1017.13 1017.49 1017.62 1017.74 1017.78 1017.82 1017.74 1017.66 1017.77 1017.35 1016.86 1016.70 1016.50 1016.29 1016.03 1015.96 1015.85 1015.64 1015.47 1015.51 1015.60 1015.68 1015.41
1012.56 1013.02 1013.51 1013.84 1014.11 1014.42 1014.71 1015.14 1015.46 1015.72 1015.75 1015.66 1015.65 1015.72 1015.77 1015.92 1016.12 1016.40 1016.67 1017.07 1017.22 1017.45 1017.57 1017.58 1017.71 1017.88 1017.86 1017.73 1017.80 1018.05 1017.94 1017.28 1016.84 1016.61 1016.44 1016.36 1016.26 1015.90 1015.63 1015.49 1015.51 1015.38 1015.27
1012.24 1012.62 1013.05 1013.30 1013.63 1014.05 1014.38 1014.90 1015.37 1015.70 1015.82 1015.90 1015.98 1016.05 1016.01 1015.94 1016.07 1016.35 1016.73 1017.02 1017.28 1017.48 1017.60 1017.66 1017.73 1017.85 1018.07 1018.02 1017.89 1018.08 1018.10 1018.28 1017.86 1016.95 1016.67 1016.52 1016.40 1016.19 1015.98 1015.80 1015.59 1015.51 1015.37
1011.56 1012.06 1012.51 1012.94 1013.32 1013.75 1014.14 1014.56 1015.03 1015.44 1015.94 1015.84 1015.82 1015.91 1016.06 1015.98 1016.17 1016.39 1016.64 1016.90 1017.13 1017.26 1017.45 1017.51 1017.55 1017.62 1017.78 1017.99 1018.02 1017.94 1017.94 1018.08 1018.30 1018.13 1017.25 1016.91 1016.58 1016.36 1016.18 1015.96 1015.83 1015.61 1015.49
1010.86 1011.46 1012.00 1012.60 1013.09 1013.40 1013.92 1014.27 1014.73 1015.26 1015.60 1015.55 1015.82 1016.02 1016.14 1016.22 1016.26 1016.31 1016.53 1016.79 1017.09 1017.22 1017.32 1017.34 1017.36 1017.37 1017.56 1017.87 1017.92 1017.94 1018.08 1018.24 1018.36 1018.56 1018.34 1017.71 1017.00 1016.58 1016.30 1016.16 1015.88 1015.74 1015.58
1010.37 1010.94 1011.54 1012.20 1012.68 1013.11 1013.49 1013.94 1014.36 1014.98 1015.32 1015.71 1015.99 1016.28 1016.33 1016.24 1016.28 1016.31 1016.39 1016.62 1016.87 1017.10 1017.14 1017.14 1017.22 1017.22 1017.23 1017.29 1017.46 1017.73 1017.91 1018.14 1018.37 1018.55 1018.76 1018.23 1017.78 1017.02 1016.43 1016.19 1016.09 1015.87 1015.74
Wind_Speed
4 5 14 17 17 19 17 17 17 18 17 16 16 17 16 15 14 12 11 9 10 10 11 12 10 10 10 9 9 10 9 8 8 9 8 9 8 7 6 6 8 5 9
6 6 17 16 17 17 19 18 17 18 17 16 15 16 15 15 13 12 11 10 11 10 10 10 7 7 7 9 8 7 7 6 7 7 7 8 5 3 4 8 6 6 8
5 6 12 17 18 19 18 18 18 18 17 15 15 15 15 15 14 14 11 11 10 9 9 8 6 5 6 6 6 5 4 5 5 5 7 4 2 7 9 7 8 10 10
6 5 9 16 17 18 16 17 17 18 17 15 14 14 15 14 13 12 11 10 9 8 8 6 4 4 3 4 4 5 3 3 4 5 4 4 3 6 7 7 7 10 11
6 5 10 15 16 18 17 15 16 16 16 15 15 14 13 13 12 11 11 9 8 7 5 5 3 2 2 2 2 2 2 3 3 4 4 4 3 6 7 9 8 10 10
6 6 12 16 16 17 17 15 16 15 15 14 13 13 13 13 11 9 9 8 6 5 4 3 2 1 1 0 0 2 1 4 2 3 4 6 5 7 9 8 8 11 10
6 7 9 14 15 15 15 15 14 13 13 12 12 12 12 11 10 8 7 6 5 4 4 3 3 3 3 2 2 3 3 2 3 4 5 5 5 10 10 10 10 9 12
7 5 7 13 14 14 14 14 12 12 12 11 11 11 10 10 9 7 6 6 5 4 4 4 5 4 4 3 4 3 3 4 1 3 4 4 8 11 10 10 10 10 9
6 6 5 6 11 15 14 14 14 13 13 12 11 10 9 9 8 7 7 5 5 5 5 6 5 5 5 5 4 3 4 5 2 2 4 4 11 12 10 11 12 12 11
5 5 5 5 6 6 7 16 16 14 13 12 10 9 8 8 7 7 3 4 7 8 6 6 6 5 5 5 6 5 4 4 1 3 2 3 12 13 12 12 11 11 13
6 6 7 6 5 5 4 6 11 13 12 11 10 10 7 2 3 2 5 6 6 8 7 7 6 5 5 3 5 7 5 2 2 3 3 7 13 14 12 13 13 13 13
9 5 5 6 6 5 6 5 5 4 4 3 4 4 3 4 3 4 3 7 6 8 8 4 5 5 5 3 2 5 3 3 3 4 3 10 13 15 14 14 14 14 13
12 8 7 6 6 6 5 4 3 3 2 3 4 4 4 2 2 0 1 1 1 5 2 4 3 3 4 3 4 3 3 4 3 3 5 11 14 15 15 15 15 15 14
10 10 8 7 7 7 4 4 4 3 3 3 4 5 4 2 3 3 2 2 1 0 0 2 2 4 5 5 4 5 4 3 3 2 5 10 11 16 15 16 16 16 15
11 11 10 9 9 8 4 4 4 4 4 4 4 5 4 4 4 3 3 2 1 1 1 1 1 2 4 4 5 4 4 4 4 3 2 13 13 14 15 15 17 17 16
12 12 11 11 9 6 6 6 4 4 4 4 4 5 6 4 4 4 3 3 2 1 2 1 2 2 3 3 5 5 5 4 4 4 3 5 12 13 16 15 16 17 17
12 12 13 12 8 8 7 6 4 5 4 5 5 6 6 5 5 5 3 2 3 2 3 2 2 2 3 3 4 4 4 5 4 5 4 4 5 12 15 16 15 17 18
11 11 11 10 9 7 6 5 4 4 4 4 4 4 4 5 6 5 3 3 3 2 2 2 2 3 3 3 3 4 4 4 5 5 4 4 4 4 9 17 17 17 19
13 12 11 9 9 8 6 5 5 6 4 3 2 2 4 5 6 4 3 3 3 1 2 2 2 1 3 4 4 4 4 4 5 5 6 5 5 5 4 10 17 16 19
11 11 11 8 7 7 5 4 2 2 2 2 3 3 4 2 3 4 3 3 3 2 1 1 2 1 2 3 4 5 5 3 3 4 4 5 4 5 5 5 5 6 17
8 9 7 8 8 5 3 3 1 3 2 3 3 4 5 4 5 4 3 2 3 2 2 2 2 2 2 1 2 4 4 3 1 3 3 3 5 5 3 4 3 3 5
12 11 9 10 8 7 4 3 3 2 2 1 1 3 4 5 5 4 4 2 2 1 1 0 1 0 1 1 1 1 4 5 3 3 3 3 5 4 4 5 5 5 4
11 11 11 11 8 7 7 3 2 2 1 1 0 2 3 5 5 4 4 4 3 3 3 2 2 2 1 2 1 2 1 2 3 3 3 3 5 4 4 4 5 5 5
13 11 10 9 8 7 7 5 5 4 4 3 3 3 4 4 5 5 4 4 4 3 3 2 2 1 2 1 1 1 1 2 1 4 3 4 5 4 5 4 5 5 5
14 12 10 9 8 7 7 7 5 4 3 2 2 5 3 1 2 4 5 6 4 3 3 3 3 3 2 2 2 2 1 1 1 1 4 4 3 3 3 4 4 4 5
12 12 10 11 10 9 9 8 9 8 6 4 3 4 3 1 2 4 5 5 4 3 4 3 2 3 4 3 3 3 3 3 3 2 2 4 3 4 3 3 4 4 4
Wind_Direction
168 162 137 132 142 143 150 145 143 131 131 130 129 127 125 121 120 118 112 107 111 112 106 101 101 98 97 91 85 88 89 101 109 106 109 108 103 106 109 109 104 112 116
146 149 141 141 142 144 134 132 133 135 134 130 124 123 123 119 119 114 116 115 113 102 100 99 100 103 100 89 85 87 94 97 107 123 125 114 106 167 123 111 114 126 120
133 137 132 141 140 135 131 126 131 133 131 125 126 126 125 124 122 124 131 127 115 115 117 125 132 122 102 93 92 91 98 118 133 151 129 106 134 93 130 116 120 124 115
136 123 138 140 135 131 130 131 130 128 129 132 131 133 131 133 133 132 130 124 132 136 134 135 145 121 108 100 83 87 112 127 160 155 119 147 127 123 116 126 139 121 122
121 123 138 134 136 136 135 131 128 136 139 144 141 141 141 136 137 137 135 136 137 139 141 154 155 141 134 110 89 85 135 140 136 155 143 139 135 137 136 139 145 135 132
127 131 137 141 143 139 139 142 143 147 149 148 148 147 147 140 141 143 137 137 153 154 164 165 191 199 275 306 134 297 148 153 145 184 163 161 147 152 153 145 159 147 137
137 139 141 148 148 146 150 149 150 148 149 143 147 151 149 143 152 147 146 158 173 182 199 214 237 268 282 288 276 276 289 177 121 150 158 154 166 164 164 163 156 149 155
134 132 148 148 152 155 157 159 157 153 149 149 157 159 153 157 158 157 169 186 204 210 239 258 270 270 280 285 277 268 261 264 115 185 156 162 181 175 174 158 164 160 163
138 139 134 147 160 163 168 171 169 170 166 169 170 169 167 165 170 183 198 216 234 231 258 282 294 299 290 294 296 274 253 255 174 231 203 181 183 184 175 173 170 173 176
142 154 156 164 164 167 172 177 179 179 175 183 180 179 181 191 196 207 210 246 249 256 259 283 293 297 301 310 307 304 278 278 279 241 217 191 189 190 182 188 183 188 180
168 171 165 175 168 172 174 189 182 181 180 189 190 189 196 195 233 229 265 258 263 275 275 276 282 304 314 339 324 321 317 298 279 250 232 217 192 195 189 195 191 196 190
174 184 175 172 173 167 187 195 174 195 187 193 193 197 181 209 225 244 291 288 265 275 288 277 292 309 352 341 326 350 348 309 277 275 231 221 198 204 199 201 203 203 204
176 176 187 183 175 181 198 179 187 192 200 189 207 208 211 219 221 122 286 346 318 293 309 332 332 339 328 345 323 313 332 311 277 232 248 231 203 214 210 209 206 210 205
177 185 182 191 187 200 201 182 187 188 192 199 202 207 198 206 229 250 233 260 287 327 134 343 352 331 322 328 301 303 308 290 285 258 234 229 214 221 221 211 211 214 210
179 188 190 190 195 202 191 191 190 201 199 217 209 211 197 205 215 216 231 231 208 236 278 309 348 322 308 315 315 310 309 305 286 268 233 236 217 230 235 225 217 218 220
183 187 190 198 199 180 196 192 204 199 223 197 214 218 204 206 216 210 225 239 270 231 294 258 259 292 306 307 302 307 306 304 306 283 245 239 247 225 231 235 227 224 225
185 180 188 197 191 185 196 201 195 208 199 209 215 218 210 203 218 207 227 262 248 244 259 276 293 308 310 307 298 303 301 305 301 297 266 254 256 247 227 232 229 226 231
177 177 184 192 189 189 188 190 189 195 197 197 207 200 199 212 206 204 208 230 242 242 255 256 276 293 285 289 293 296 298 298 296 292 281 258 249 250 243 231 234 232 229
185 182 181 185 180 182 190 198 200 195 206 210 202 214 217 231 232 199 189 233 231 214 233 244 274 238 309 314 310 302 284 278 286 304 302 301 283 266 243 249 234 234 237
183 182 184 184 180 179 182 185 211 205 223 230 231 210 213 197 128 158 181 195 179 157 262 258 277 299 260 280 301 299 289 301 298 286 286 303 303 284 264 245 255 241 239
181 179 179 175 196 166 161 154 184 216 207 224 221 225 201 204 168 165 173 154 145 169 212 237 242 247 296 346 335 323 323 358 47 325 341 353 346 325 304 282 287 271 275
180 189 183 195 190 191 166 164 158 168 218 205 146 196 191 166 163 160 166 160 156 134 54 194 204 180 270 311 150 87 356 334 330 30 25 25 22 359 10 358 330 295 278
185 184 189 193 190 189 181 133 104 77 47 38 159 146 184 176 161 146 155 156 160 145 183 191 192 161 149 320 322 146 81 262 330 331 351 7 6 354 350 344 350 337 320
192 189 191 191 184 193 175 165 165 172 189 224 188 168 182 182 168 161 174 170 166 172 176 175 164 159 134 164 1 330 311 162 208 327 327 329 342 344 341 339 339 336 333
181 185 190 183 187 185 181 178 173 174 194 176 134 150 172 190 183 194 169 160 172 184 191 181 182 183 181 151 182 174 102 48 61 162 293 313 328 305 305 333 336 344 347
185 182 181 180 195 189 183 186 178 182 168 150 161 174 193 207 283 197 163 171 180 191 192 202 202 193 188 178 169 177 168 165 196 169 240 296 282 294 307 322 2 1 349